| time (UTC) | temp F | wind direction | speed MPH | gust MPH | rain 1hr in | rain 24hr in | rain mn in | humidity % | barometer mb |
| 20260507080136 | 47 | 262 | 5.0 | 15.0 | 0.00 | 0.00 | 0.00 | 42 | 866.8 |
| 20260507070430 | 46 | 233 | 15.0 | 22.0 | 0.00 | 0.00 | 0.00 | 49 | 866.9 |
| 20260507060103 | 46 | 265 | 0.0 | 7.0 | 0.00 | 0.00 | 0.00 | 60 | 867.6 |
| 20260507040117 | 49 | 253 | 10.0 | 26.0 | 0.00 | 0.00 | 0.00 | 45 | 867.8 |
| 20260507030100 | 50 | 257 | 18.0 | 33.0 | 0.00 | 0.00 | 0.00 | 55 | 867.6 |
| 20260507020033 | 51 | 255 | 11.0 | 17.0 | 0.00 | 0.00 | 0.00 | 66 | 867.9 |
| 20260507010030 | 52 | 189 | 7.0 | 10.0 | 0.00 | 0.00 | 0.00 | 67 | 868.0 |
| 20260507000058 | 50 | 97 | 6.0 | 9.0 | 0.00 | 0.00 | 0.00 | 69 | 868.1 |
| 20260506230052 | 52 | 125 | 3.0 | 11.0 | 0.00 | 0.00 | 0.00 | 65 | 868.5 |
| 20260506210121 | 51 | 109 | 8.0 | 13.0 | 0.00 | 0.00 | 0.00 | 62 | 869.2 |
| 20260506200056 | 52 | 115 | 6.0 | 10.0 | 0.00 | 0.00 | 0.00 | 60 | 869.4 |
| 20260506190312 | 51 | 159 | 6.0 | 10.0 | 0.00 | 0.00 | 0.00 | 61 | 869.5 |
| 20260506180054 | 48 | 178 | 2.0 | 5.0 | 0.00 | 0.00 | 0.00 | 66 | 869.6 |
| 20260506170100 | 45 | 244 | 2.0 | 6.0 | 0.00 | 0.00 | 0.00 | 71 | 868.9 |
| 20260506160127 | 43 | 243 | 6.0 | 10.0 | 0.00 | 0.00 | 0.00 | 71 | 868.7 |
| 20260506150112 | 45 | 132 | 3.0 | 9.0 | 0.00 | 0.00 | 0.00 | 65 | 868.6 |
| 20260506140115 | 45 | 243 | 5.0 | 14.0 | 0.00 | 0.00 | 0.00 | 71 | 868.3 |
| 20260506130050 | 44 | 249 | 11.0 | 17.0 | 0.00 | 0.00 | 0.00 | 73 | 867.8 |
| 20260506120029 | 44 | 209 | 3.0 | 5.0 | 0.00 | 0.00 | 0.00 | 65 | 868.0 |
| 20260506110047 | 45 | 255 | 6.0 | 10.0 | 0.00 | 0.00 | 0.00 | 67 | 867.5 |
| 20260506100047 | 45 | 259 | 7.0 | 12.0 | 0.00 | 0.00 | 0.00 | 63 | 867.3 |